User: anonymous   Login
Location: Caltech
(34.1382°N, 118.1253°W)
Time: 15:45:05
(UTC-08:00)
Language:

Cosmos 1975 - Orbit

View from above orbital plane
View from above orbital plane
View from above satellite
View from above satellite

Ground track
Ground track

The orbit data is extracted from the following two-line orbital elements,

1 19573U 88093A   14325.78740687  .00004849  00000-0  37472-3 0  3709
2 19573 082.5207 172.0364 0013993 248.7763 111.1967 15.01255973418834
Epoch (UTC): 21 November 2014 18:53:51
Eccentricity: 0.0013993
inclination: 82.5207°
perigee height: 553 km
apogee height: 573 km
right ascension of ascending node: 172.0364°
argument of perigee: 248.7763°
revolutions per day: 15.01255973
mean anomaly at epoch: 111.1967°
orbit number at epoch: 41883

The dashed part of the orbit path shows where the satellite is in the earth's shadow,  

DLR